Flag for Germany Weather past 2 weeks in Gütersloh, North Rhine-Westphalia, Germany

Now
51 °F

Fog.


Feels Like: 51 °F
Forecast: 46 / 64 °F
Wind: 1 mph from Southwest

Location: Bad Lippspringe

Current Time: Aug 23, 2014 at 7:42:53 AM

Latest Report: Aug 23, 2014 at 7:00 AM


Visibility: 2 mi

Pressure: 29.91 "Hg

Humidity: 94%

Dew point: 49 °F

Location of GüterslohLocation

Historic Weather in Gütersloh — Graph

°F

Gütersloh temperature yesterday

Maximum temperature yesterday: 66 °F (at 2:00 PM)
Minimum temperature yesterday: 52 °F (at 6:00 AM)
Average temperature yesterday: 58 °F

Past Weeks' High & Low Weather Summary

 TemperatureHumidityPressure
High79 °F (Aug 8, 3:00 PM)98% (Aug 8, 7:00 AM)30.06 "Hg (Aug 8, 7:00 AM)
Low46 °F (Aug 21, 4:00 AM)40% (Aug 8, 3:00 PM)29.61 "Hg (Aug 10, 10:00 PM)
Average60 °F75%29.86 "Hg
* Reported Aug 8 7:00 AM — Aug 23 7:00 AM, Gütersloh, Weather by CustomWeather, © 2014

Note: Actual official high and low records may vary slightly from our data, if they occured in-between our weather recording intervals... More about our weather records

Advertising

Gütersloh weather history for previous 24 hours

 ConditionsComfort  
Time TempWeatherWind HumidityBarometerVisibility
7:00 AM
Aug 23
51 °FFog.1 mph94%29.91 "Hg2 mi
6:00 AM52 °FFog.2 mph91%29.89 "Hg3 mi
5:00 AM53 °FFog.5 mph90%29.89 "Hg4 mi
4:00 AM53 °FFog.3 mph91%29.89 "Hg4 mi
3:00 AM53 °FFog.1 mph93%29.89 "Hg4 mi
2:00 AM51 °FFog.1 mph96%29.89 "Hg4 mi
1:00 AM53 °FOvercast.1 mph92%29.89 "Hg7 mi
12:00 AM53 °FClear.2 mph92%29.89 "Hg5 mi
11:00 PM
Aug 22
53 °FFog.2 mph93%29.90 "Hg4 mi
10:00 PM54 °FOvercast.2 mph93%29.90 "Hg4 mi
9:00 PM54 °FLight rain. Overcast.2 mph89%29.88 "Hg9 mi
8:00 PM56 °FLight rain. Overcast.2 mph88%29.87 "Hg3 mi
7:00 PM57 °FLight freezing rain. Overcast.3 mph84%29.86 "Hg3 mi
6:00 PM63 °FOvercast.6 mph57%29.85 "Hg31 mi
5:00 PM61 °FOvercast.2 mph68%29.85 "Hg28 mi
4:00 PM64 °FOvercast.7 mph49%29.85 "Hg37 mi
3:00 PM64 °FOvercast.7 mph48%29.87 "Hg31 mi
2:00 PM66 °FScattered clouds.7 mph49%29.88 "Hg25 mi
1:00 PM65 °FOvercast.8 mph50%29.89 "Hg16 mi
12:00 PM63 °FOvercast.7 mph52%29.90 "Hg28 mi
11:00 AM64 °FPartly sunny.6 mph50%29.90 "Hg16 mi
10:00 AM62 °FSunny.5 mph58%29.90 "Hg19 mi
9:00 AM57 °FPartly sunny.3 mph67%29.92 "Hg25 mi
8:00 AM54 °FOvercast.2 mph73%29.93 "Hg25 mi
7:00 AM53 °FOvercast.2 mph77%29.93 "Hg25 mi
Weather by CustomWeather, © 2014

See weather overviewHow to use our weather pages